Weather History for Deming, NM

Change the Weather History Date:

Monday, January 27, 2014

  Actual Average Record
Temperature  
Mean Temperature 52 °F 44 °F  
Max Temperature 63 °F 59 °F 73 °F (1971)
Min Temperature 41 °F 29 °F 12 °F (1966)
Degree Days  
Heating Degree Days 13    
Growing Degree Days 2 (Base 50)    
Moisture  
Dew Point 25 °F    
Average Humidity 37    
Maximum Humidity 49    
Minimum Humidity 24    
Precipitation  
Precipitation 0.00 in 0.02 in 0.14 in (1961)
Month to date precipitation 0.00 0.52  
Year to date precipitation 0.00 0.52  
Sea Level Pressure  
Sea Level Pressure 29.90 in    
Wind  
Wind Speed 8 mph (West)    
Max Wind Speed 20 mph    
Max Gust Speed 25 mph    
Visibility 10 miles    
Events      
T = Trace of Precipitation, MM = Missing Value Source: NWS Daily Summary

Daily Weather History Graph

Daily Weather History Graph

Search for Another Location

Airport:

Trip Planner

Search our weather history database for the weather conditions in past years. The results will help you decide how hot, cold, wet, or windy it might be!

Date:

Astronomy

Jan. 27, 2014 Rise Set
Actual Time 7:07 AM MST 5:39 PM MST
Civil Twilight 6:41 AM MST 6:05 PM MST
Nautical Twilight 6:12 AM MST 6:35 PM MST
Astronomical Twilight 5:43 AM MST 7:04 PM MST
Moon 3:49 AM MST 2:31 PM MST
Length of Visible Light 11h 23m
Length of Day
10h 32m
Waning Crescent, 14% of the Moon is Illuminated
Jan 27
Waning Crescent
Jan 30
New
Feb 6
First Quarter
Feb 14
Full
Feb 22
Last Quarter

Hourly Weather History & Observations

Time (MST) Temp. Windchill Dew Point Humidity Pressure Visibility Wind Dir Wind Speed Gust Speed Precip Events Conditions
12:53 AM 44.1 °F 40.8 °F 25.0 °F 47% 29.86 in 10.0 mi WNW 5.8 mph - N/A   Clear
1:53 AM 42.1 °F 38.4 °F 24.1 °F 49% 29.87 in 10.0 mi WNW 5.8 mph - N/A   Clear
2:53 AM 43.0 °F 37.2 °F 24.1 °F 47% 29.86 in 10.0 mi WNW 10.4 mph - N/A   Clear
3:53 AM 44.1 °F 39.0 °F 24.1 °F 45% 29.87 in 10.0 mi West 9.2 mph - N/A   Clear
4:53 AM 44.1 °F - 24.1 °F 45% 29.89 in 10.0 mi Calm Calm - N/A   Clear
5:53 AM 43.0 °F 37.2 °F 24.1 °F 47% 29.91 in 10.0 mi SW 10.4 mph - N/A   Overcast
6:53 AM 44.1 °F 41.5 °F 23.0 °F 43% 29.94 in 10.0 mi WNW 4.6 mph - N/A   Overcast
7:53 AM 44.1 °F 41.5 °F 23.0 °F 43% 29.97 in 10.0 mi SW 4.6 mph - N/A   Mostly Cloudy
8:53 AM 46.9 °F - 21.9 °F 37% 29.97 in 10.0 mi West 5.8 mph - N/A   Overcast
9:53 AM 53.1 °F - 23.0 °F 31% 29.98 in 10.0 mi West 3.5 mph - N/A   Mostly Cloudy
10:53 AM 54.0 °F - 21.9 °F 29% 29.99 in 10.0 mi Calm Calm - N/A   Overcast
11:53 AM 55.9 °F - 19.9 °F 25% 29.95 in 10.0 mi SE 6.9 mph - N/A   Overcast
12:53 PM 60.1 °F - 26.1 °F 27% 29.89 in 10.0 mi South 4.6 mph - N/A   Scattered Clouds
1:53 PM 61.0 °F - 33.1 °F 35% 29.86 in 10.0 mi SSW 11.5 mph - N/A   Overcast
2:53 PM 62.1 °F - 33.1 °F 34% 29.84 in 10.0 mi WSW 11.5 mph 21.9 mph N/A   Overcast
3:53 PM 62.1 °F - 30.0 °F 30% 29.83 in 10.0 mi West 13.8 mph - N/A   Overcast
4:53 PM 61.0 °F - 28.0 °F 29% 29.84 in 10.0 mi West 13.8 mph - N/A   Clear
5:53 PM 57.9 °F - 28.9 °F 33% 29.86 in 10.0 mi West 10.4 mph - N/A   Clear
6:53 PM 54.0 °F - 28.0 °F 37% 29.89 in 10.0 mi WNW 12.7 mph - N/A   Clear
7:53 PM 53.1 °F - 28.0 °F 38% 29.90 in 10.0 mi West 10.4 mph - N/A   Clear
8:53 PM 46.9 °F - 26.1 °F 44% 29.92 in 10.0 mi NW 5.8 mph - N/A   Clear
9:53 PM 46.9 °F - 24.1 °F 41% 29.91 in 10.0 mi West 9.2 mph - N/A   Clear
10:53 PM 45.0 °F 40.1 °F 23.0 °F 42% 29.92 in 10.0 mi West 9.2 mph - N/A   Clear
11:53 PM 42.1 °F 38.4 °F 23.0 °F 47% 29.93 in 10.0 mi West 5.8 mph - N/A   Clear